Jefferson, NC

10:49 AM EST on December 08, 2019 (GMT -0500)
Ashe County

Weather History for KGEV - June, 2019

Change the Weather History Date:

Wednesday, June 5, 2019

  Actual Average Record
Temperature  
Mean Temperature 65 °F -  
Max Temperature 72 °F 74 °F 90 °F (1985)
Min Temperature 58 °F 50 °F 28 °F (1988)
Growing Degree Days 15 (Base 50)    
Moisture  
Dew Point 59 °F    
Average Humidity 81    
Maximum Humidity 93    
Minimum Humidity 64    
Precipitation  
Precipitation 0.02 in - - ()
Sea Level Pressure  
Sea Level Pressure 30.08 in    
Wind  
Wind Speed 2 mph (WSW)    
Max Wind Speed 10 mph    
Max Gust Speed 20 mph    
Visibility 10 miles    
Events Rain    
Averages and records for this station are not official NWS values.
T = Trace of Precipitation, MM = Missing Value Source: NWS Daily Summary

Daily Weather History Graph

Daily Weather History Graph

Search for Another Location

Airport or City:

Astronomy

Jun. 05, 2019 Rise Set
Actual Time 6:08 AM EDT 8:40 PM EDT
Civil Twilight 5:37 AM EDT 9:10 PM EDT
Nautical Twilight 5:00 AM EDT 9:48 PM EDT
Astronomical Twilight 4:19 AM EDT 10:29 PM EDT
Moon 8:11 AM EDT (6/5) 11:06 PM EDT (6/5)
Length of Visible Light 15h 32m
Length of Day
14h 32m
Waxing Crescent, 6% of the Moon is Illuminated
Jun 5
Waxing Crescent
Jun 10
First Quarter
Jun 17
Full
Jun 25
Last Quarter
Jul 2
New

Hourly Weather History & Observations

Time (EDT) Temp. Dew Point Humidity Pressure Visibility Wind Dir Wind Speed Gust Speed Precip Events Conditions
12:05 AM 60.4 °F 55.4 °F 83% 30.17 in 10.0 mi Calm Calm - N/A   Scattered Clouds
12:45 AM 58.5 °F 55.2 °F 89% 30.17 in 10.0 mi Calm Calm - N/A   Scattered Clouds
1:05 AM 59.0 °F 55.4 °F 88% 30.17 in 10.0 mi SE 3.5 mph - N/A   Mostly Cloudy
1:25 AM 59.9 °F 55.6 °F 86% 30.17 in 10.0 mi Calm Calm - N/A   Overcast
1:45 AM 59.0 °F 55.8 °F 89% 30.16 in 10.0 mi ESE 3.5 mph - N/A   Overcast
2:05 AM 60.8 °F 55.9 °F 84% 30.17 in 10.0 mi Calm Calm - N/A Rain Light Rain
2:25 AM 61.2 °F 56.3 °F 84% 30.16 in 10.0 mi Calm Calm - N/A   Overcast
2:45 AM 61.7 °F 57.2 °F 85% 30.15 in 10.0 mi Calm Calm - N/A Rain Light Rain
3:05 AM 61.3 °F 57.2 °F 86% 30.15 in 10.0 mi Calm Calm - N/A   Overcast
3:25 AM 60.6 °F 56.7 °F 87% 30.14 in 10.0 mi Calm Calm - N/A   Overcast
3:45 AM 60.1 °F 56.8 °F 89% 30.14 in 10.0 mi East 3.5 mph - N/A   Overcast
4:05 AM 60.1 °F 56.7 °F 88% 30.13 in 10.0 mi Calm Calm - N/A   Mostly Cloudy
4:45 AM 59.9 °F 56.5 °F 88% 30.12 in 10.0 mi SE 3.5 mph - N/A   Mostly Cloudy
5:05 AM 58.6 °F 56.5 °F 93% 30.12 in 10.0 mi Calm Calm - N/A   Overcast
5:25 AM 59.5 °F 57.0 °F 91% 30.11 in 7.0 mi Calm Calm - N/A   Overcast
5:45 AM 59.7 °F 57.2 °F 91% 30.11 in 10.0 mi Calm Calm - N/A   Overcast
6:05 AM 59.9 °F 57.2 °F 91% 30.11 in 10.0 mi Calm Calm - N/A   Overcast
6:25 AM 60.3 °F 57.2 °F 90% 30.10 in 10.0 mi Calm Calm - N/A   Overcast
6:45 AM 59.4 °F 57.2 °F 93% 30.11 in 10.0 mi Calm Calm - N/A   Mostly Cloudy
7:05 AM 62.1 °F 57.4 °F 85% 30.12 in 10.0 mi Calm Calm - N/A   Scattered Clouds
7:25 AM 61.0 °F 57.9 °F 90% 30.11 in 10.0 mi Calm Calm - N/A   Scattered Clouds
8:05 AM 61.7 °F 58.3 °F 89% 30.12 in 10.0 mi Calm Calm - N/A   Overcast
8:25 AM 62.1 °F 58.6 °F 89% 30.11 in 10.0 mi Calm Calm - N/A   Overcast
8:45 AM 62.6 °F 59.0 °F 88% 30.11 in 10.0 mi Calm Calm - N/A   Overcast
9:05 AM 63.7 °F 60.1 °F 88% 30.11 in 10.0 mi Calm Calm - N/A   Overcast
9:25 AM 64.9 °F 59.9 °F 84% 30.11 in 10.0 mi Calm Calm - N/A   Mostly Cloudy
9:45 AM 68.7 °F 61.2 °F 77% 30.10 in 10.0 mi Calm Calm - N/A   Clear
10:05 AM 69.1 °F 60.4 °F 74% 30.09 in 10.0 mi SSE 3.5 mph - N/A   Clear
10:25 AM 69.8 °F 60.8 °F 73% 30.09 in 10.0 mi South 4.6 mph - N/A   Clear
10:45 AM 68.9 °F 61.7 °F 78% 30.09 in 10.0 mi South 3.5 mph - N/A   Scattered Clouds
11:25 AM 66.2 °F 62.2 °F 87% 30.10 in 10.0 mi SSE 3.5 mph - N/A Rain Light Rain
11:45 AM 65.7 °F 62.6 °F 90% 30.11 in 10.0 mi Calm Calm - N/A   Light Drizzle
12:05 PM 66.4 °F 63.3 °F 90% 30.12 in 10.0 mi Calm Calm - N/A   Light Drizzle
12:25 PM 66.6 °F 62.4 °F 86% 30.12 in 10.0 mi Calm Calm - N/A Rain Light Rain
12:45 PM 67.1 °F 55.8 °F 67% 30.12 in 7.0 mi West 5.8 mph - N/A Rain Light Rain
1:05 PM 65.1 °F 56.5 °F 74% 30.12 in 7.0 mi West 6.9 mph - N/A Rain Light Rain
1:25 PM 64.8 °F 58.5 °F 80% 30.13 in 5.0 mi West 5.8 mph - 0.01 in Rain Light Rain
1:45 PM 64.6 °F 59.9 °F 85% 30.12 in 7.0 mi West 5.8 mph - 0.02 in Rain Light Rain
2:05 PM 64.8 °F 60.3 °F 85% 30.10 in 10.0 mi West 9.2 mph - N/A   Light Drizzle
2:25 PM 65.3 °F 60.3 °F 84% 30.09 in 10.0 mi West 8.1 mph - N/A Rain Light Rain
3:05 PM 65.3 °F 59.2 °F 81% 30.07 in 10.0 mi SW 3.5 mph - N/A   Overcast
3:25 PM 65.8 °F 59.0 °F 79% 30.07 in 10.0 mi West 6.9 mph - N/A   Mostly Cloudy
3:45 PM 65.3 °F 60.4 °F 84% 30.07 in 10.0 mi Calm Calm - N/A   Mostly Cloudy
4:25 PM 66.4 °F 59.2 °F 78% 30.06 in 10.0 mi WSW 3.5 mph - N/A   Clear
4:45 PM 66.6 °F 58.6 °F 76% 30.04 in 10.0 mi WSW 3.5 mph - N/A   Clear
5:05 PM 67.6 °F 58.5 °F 72% 30.03 in 10.0 mi West 4.6 mph - N/A   Clear
5:25 PM 68.7 °F 57.6 °F 67% 30.02 in 10.0 mi West 6.9 mph - N/A   Clear
5:45 PM 70.7 °F 57.9 °F 64% 30.02 in 10.0 mi West 6.9 mph - N/A   Clear
6:05 PM 72.1 °F 59.4 °F 64% 30.01 in 10.0 mi WSW 8.1 mph - N/A   Clear
6:25 PM 72.0 °F 59.4 °F 64% 30.01 in 10.0 mi WSW 8.1 mph - N/A   Scattered Clouds
6:45 PM 72.5 °F 59.9 °F 64% 29.99 in 10.0 mi SW 8.1 mph 17.3 mph N/A   Scattered Clouds
7:05 PM 72.3 °F 60.1 °F 65% 29.99 in 10.0 mi SW 8.1 mph 17.3 mph N/A   Scattered Clouds
7:25 PM 71.6 °F 60.1 °F 67% 29.99 in 10.0 mi WSW 9.2 mph 18.4 mph N/A   Scattered Clouds
7:45 PM 70.5 °F 60.1 °F 69% 29.99 in 10.0 mi WSW 5.8 mph 19.6 mph N/A   Scattered Clouds
8:25 PM 69.8 °F 60.3 °F 72% 29.99 in 10.0 mi West 6.9 mph - N/A   Scattered Clouds
8:45 PM 69.3 °F 60.8 °F 74% 29.99 in 10.0 mi West 6.9 mph - N/A   Clear
9:05 PM 69.3 °F 61.0 °F 75% 29.99 in 10.0 mi WSW 8.1 mph 18.4 mph N/A   Clear
9:25 PM 69.1 °F 61.0 °F 75% 29.99 in 10.0 mi WSW 3.5 mph - N/A   Mostly Cloudy
9:45 PM 69.3 °F 61.0 °F 75% 30.01 in 10.0 mi WSW 4.6 mph - N/A   Overcast
10:25 PM 69.1 °F 60.8 °F 75% 30.02 in 10.0 mi WSW 10.4 mph - N/A   Mostly Cloudy
10:45 PM 68.5 °F 60.8 °F 76% 30.02 in 10.0 mi West 5.8 mph 16.1 mph N/A   Scattered Clouds
11:05 PM 68.9 °F 60.8 °F 75% 30.03 in 10.0 mi WSW 8.1 mph 19.6 mph N/A   Scattered Clouds
11:25 PM 68.9 °F 61.0 °F 76% 30.03 in 10.0 mi SW 4.6 mph - N/A   Scattered Clouds
11:45 PM 68.9 °F 61.2 °F 76% 30.03 in 10.0 mi Calm Calm - N/A   Scattered Clouds